KC4ANB Weather Reports


Display with metric or nautical units.
time (UTC)temp
F
wind
direction
speed
MPH
gust
MPH
rain 1hr
in
rain 24hr
in
rain mn
in
humidity
%
barometer
mb
20260510214218 77 90 1.0 2.0 0.00 0.00 0.00 66 1015.4
20260510213217 77 0.0 1.0 0.00 0.00 0.00 63 1015.5
20260510212217 77 0.0 1.0 0.00 0.00 0.00 64 1015.6
20260510211217 77 338 1.0 2.0 0.00 0.00 0.00 65 1015.5
20260510210258 78 293 1.0 2.0 0.00 0.00 0.00 65 1015.5
20260510205217 77 203 1.0 2.0 0.00 0.00 0.00 65 1015.5
20260510204217 77 0.0 0.0 0.00 0.00 0.00 65 1015.6
20260510203217 77 158 1.0 4.0 0.00 0.00 0.00 65 1015.6
20260510202217 77 0.0 1.0 0.00 0.00 0.00 67 1015.6
20260510201238 77 0.0 1.0 0.00 0.00 0.00 66 1015.7
20260510200217 77 180 1.0 2.0 0.00 0.00 0.00 67 1015.7
20260510195217 77 180 1.0 3.0 0.00 0.00 0.00 66 1015.8
20260510194217 77 45 1.0 3.0 0.00 0.00 0.00 66 1015.9
20260510193237 77 0.0 0.0 0.00 0.00 0.00 64 1015.9
20260510192217 77 135 1.0 1.0 0.00 0.00 0.00 67 1015.9
20260510191217 77 338 2.0 2.0 0.00 0.00 0.00 66 1016.0
20260510190237 77 0.0 1.0 0.00 0.00 0.00 67 1016.1
20260510185257 76 203 1.0 2.0 0.00 0.00 0.00 68 1016.2
20260510184217 76 90 1.0 2.0 0.00 0.00 0.00 69 1016.2
20260510183217 76 135 1.0 2.0 0.00 0.00 0.00 70 1016.2
20260510182217 76 0 1.0 2.0 0.00 0.00 0.00 70 1016.4
20260510181217 77 0.0 1.0 0.00 0.00 0.00 65 1016.3
20260510180237 78 135 2.0 4.0 0.00 0.00 0.00 66 1016.5
20260510175217 77 203 1.0 3.0 0.00 0.00 0.00 66 1016.6
20260510174217 76 90 1.0 4.0 0.00 0.00 0.00 69 1016.8
20260510173217 76 203 2.0 5.0 0.00 0.00 0.00 69 1017.0
20260510172217 76 113 1.0 3.0 0.00 0.00 0.00 69 1017.1
20260510171217 77 113 2.0 4.0 0.00 0.00 0.00 68 1017.1
20260510170216 77 180 1.0 3.0 0.00 0.00 0.00 69 1017.1
20260510165217 76 135 1.0 3.0 0.00 0.00 0.00 71 1017.1
20260510164217 74 0.0 0.0 0.00 0.00 0.00 73 1017.1
20260510163217 75 0.0 0.0 0.00 0.00 0.00 74 1017.3
20260510162217 74 0.0 0.0 0.00 0.00 0.00 75 1017.2
20260510161217 75 0.0 1.0 0.00 0.00 0.00 75 1017.3
20260510160217 74 0.0 2.0 0.00 0.00 0.00 76 1017.2
20260510155217 74 270 2.0 3.0 0.00 0.00 0.00 76 1017.1
20260510154217 74 113 2.0 3.0 0.00 0.00 0.00 76 1017.1
20260510153237 73 225 1.0 2.0 0.00 0.00 0.00 77 1017.1
20260510152217 73 180 1.0 2.0 0.00 0.00 0.00 75 1017.2
20260510151216 72 180 2.0 4.0 0.00 0.00 0.00 78 1017.2
20260510150237 72 0.0 1.0 0.00 0.00 0.00 78 1017.2
20260510145216 71 203 1.0 3.0 0.00 0.00 0.00 81 1017.2
20260510144217 70 180 1.0 2.0 0.00 0.00 0.00 83 1017.2
20260510143216 68 0.0 1.0 0.00 0.00 0.00 85 1017.3
20260510142237 67 0.0 1.0 0.00 0.00 0.00 85 1017.2
20260510141237 68 180 1.0 1.0 0.00 0.00 0.00 86 1017.4
20260510140216 67 0.0 0.0 0.00 0.00 0.00 88 1017.4
20260510135217 66 0.0 0.0 0.00 0.00 0.00 90 1017.4
20260510134217 65 0.0 0.0 0.00 0.00 0.00 90 1017.2
20260510133216 65 0.0 0.0 0.00 0.00 0.00 91 1017.0
20260510132216 65 0.0 0.0 0.00 0.00 0.00 91 1017.0
20260510131216 64 0.0 0.0 0.00 0.00 0.00 93 1016.8
20260510130216 64 0.0 0.0 0.00 0.00 0.00 94 1016.8
20260510125216 64 0.0 0.0 0.00 0.00 0.00 94 1016.8
20260510124216 64 0.0 0.0 0.00 0.00 0.00 95 1016.5
20260510123216 64 0.0 0.0 0.00 0.00 0.00 95 1016.5
20260510122216 63 0.0 0.0 0.00 0.00 0.00 96 1016.2
20260510121216 63 0.0 1.0 0.00 0.00 0.00 97 1016.0
20260510120216 63 0.0 0.0 0.00 0.00 0.00 97 1015.8
20260510115216 63 0.0 0.0 0.00 0.00 0.00 97 1015.7
20260510114236 63 0.0 1.0 0.00 0.00 0.00 98 1015.7
20260510113217 63 315 1.0 3.0 0.00 0.00 0.00 98 1015.4
20260510112216 63 0.0 0.0 0.00 0.00 0.00 98 1015.1
20260510111216 63 0.0 0.0 0.00 0.00 0.00 98 1015.0
20260510110236 63 0.0 1.0 0.00 0.00 0.00 98 1015.0
20260510105216 63 0.0 0.0 0.00 0.00 0.00 98 1014.8
20260510104216 63 0.0 0.0 0.00 0.00 0.00 98 1014.7
20260510103216 63 0.0 0.0 0.00 0.00 0.00 98 1014.6
20260510102216 63 0 1.0 2.0 0.00 0.00 0.00 98 1014.6
20260510101216 63 0.0 1.0 0.00 0.00 0.00 98 1014.4
20260510100216 63 0.0 0.0 0.00 0.00 0.00 99 1014.3
20260510095216 63 0.0 0.0 0.00 0.00 0.00 98 1014.1
20260510094216 63 0 2.0 2.0 0.00 0.00 0.00 98 1014.0
20260510093216 63 23 1.0 2.0 0.00 0.00 0.00 98 1014.0
20260510092216 63 0.0 0.0 0.00 0.00 0.00 98 1013.9
20260510091216 63 0.0 0.0 0.00 0.00 0.00 98 1013.8
20260510090216 63 0.0 0.0 0.00 0.00 0.00 98 1013.8
20260510085215 63 0.0 0.0 0.00 0.00 0.00 98 1013.8
20260510084216 63 0.0 0.0 0.00 0.00 0.00 98 1013.6
20260510083236 63 0.0 0.0 0.00 0.00 0.00 98 1013.5
20260510082216 63 0.0 0.0 0.00 0.00 0.00 98 1013.4
20260510081216 63 113 1.0 2.0 0.00 0.00 0.00 98 1013.3
20260510080216 63 0.0 0.0 0.00 0.00 0.00 98 1013.2
20260510075216 63 0.0 0.0 0.00 0.00 0.00 98 1013.1
20260510074216 64 0.0 0.0 0.00 0.00 0.00 98 1013.2
20260510073216 64 0.0 0.0 0.00 0.00 0.00 98 1013.2
20260510072216 63 0.0 1.0 0.00 0.00 0.00 98 1013.3
20260510071216 63 0.0 0.0 0.00 0.00 0.00 98 1013.4
20260510070216 63 0.0 0.0 0.00 0.00 0.00 98 1013.4
20260510065218 63 0.0 0.0 0.00 0.00 0.00 98 1013.6
20260510064218 63 0.0 0.0 0.00 0.00 0.00 98 1013.4
20260510063218 63 0.0 0.0 0.00 0.00 0.00 98 1013.5
20260510062238 63 0.0 0.0 0.00 0.00 0.00 98 1013.5
20260510061218 62 0.0 0.0 0.00 0.00 0.00 98 1013.6
20260510060218 62 0.0 0.0 0.00 0.00 0.00 98 1013.8
20260510055218 62 0.0 0.0 0.00 0.00 0.00 97 1013.7
20260510054218 62 0.0 0.0 0.00 0.00 0.00 97 1013.9
20260510053217 62 0.0 0.0 0.00 0.00 0.00 98 1013.9
20260510052218 62 0.0 0.0 0.00 0.00 0.00 98 1013.8
20260510051217 62 0.0 0.0 0.00 0.00 0.00 97 1013.8
20260510050238 62 0.0 0.0 0.00 0.00 0.00 97 1013.8
20260510045216 62 0.0 0.0 0.00 0.00 0.00 97 1013.9
20260510044237 62 0.0 0.0 0.00 0.00 0.00 96 1013.8
20260510043216 62 0.0 0.0 0.00 0.00 0.00 96 1013.9
20260510042236 62 0.0 0.0 0.00 0.00 0.00 96 1013.8
20260510041216 62 0.0 0.0 0.00 0.00 0.00 96 1013.8
20260510040216 63 0.0 0.0 0.00 0.00 0.00 96 1013.7
20260510035237 63 0.0 0.0 0.00 0.00 0.00 96 1013.8
20260510034216 63 0.0 0.0 0.00 0.00 0.00 96 1013.7
20260510033216 63 0.0 0.0 0.00 0.00 0.00 96 1013.6
20260510032216 64 0.0 0.0 0.00 0.00 0.00 96 1013.8
20260510031216 64 0.0 0.0 0.00 0.00 0.00 95 1013.7
20260510030216 64 0.0 0.0 0.00 0.00 0.00 95 1013.7
20260510025216 64 0.0 0.0 0.00 0.00 0.00 95 1013.5
20260510024216 64 0.0 0.0 0.00 0.00 0.00 95 1013.5
20260510023216 65 0.0 0.0 0.00 0.00 0.00 94 1013.4
20260510022216 65 0.0 0.0 0.00 0.00 0.00 94 1013.3
20260510021216 65 0.0 0.0 0.00 0.00 0.00 94 1013.1
20260510020237 65 0.0 0.0 0.00 0.00 0.00 93 1013.0
20260510015216 65 0.0 0.0 0.00 0.00 0.00 93 1012.8
20260510014216 66 0.0 0.0 0.00 0.00 0.00 93 1012.6
20260510013216 66 0.0 0.0 0.00 0.00 0.00 92 1012.6
20260510012216 66 0.0 0.0 0.00 0.00 0.00 91 1012.3
20260510011236 67 0.0 0.0 0.00 0.00 0.00 91 1012.3
20260510010216 67 0.0 0.0 0.00 0.00 0.00 90 1012.0
20260510005216 67 0.0 0.0 0.00 0.00 0.00 90 1012.0
20260510004216 68 0.0 0.0 0.00 0.00 0.00 89 1011.9
20260510003216 68 0.0 0.0 0.00 0.00 0.00 88 1011.8
20260510002216 69 0.0 0.0 0.00 0.00 0.00 88 1011.6
20260510001216 69 0.0 0.0 0.00 0.00 0.00 87 1011.7
20260510000218 69 0.0 0.0 0.00 0.00 0.00 86 1011.6
20260509235216 70 0.0 0.0 0.00 0.00 0.00 85 1011.5
20260509234216 70 0.0 0.0 0.00 0.00 0.00 84 1011.5
20260509233216 71 0.0 0.0 0.00 0.00 0.00 84 1011.3
20260509232216 71 0.0 0.0 0.00 0.00 0.00 83 1011.3
20260509231216 72 0.0 0.0 0.00 0.00 0.00 82 1011.1
20260509230256 72 0.0 0.0 0.00 0.00 0.00 81 1011.0
20260509225216 72 0.0 0.0 0.00 0.00 0.00 81 1011.0
20260509224216 72 0.0 1.0 0.00 0.00 0.00 79 1011.0
20260509223215 72 0.0 0.0 0.00 0.00 0.00 79 1011.0
20260509222215 73 158 1.0 3.0 0.00 0.00 0.00 77 1011.0
20260509221218 73 158 1.0 3.0 0.00 0.00 0.00 76 1010.9
20260509220217 73 180 1.0 2.0 0.00 0.00 0.00 76 1010.8
20260509215218 73 180 1.0 4.0 0.00 0.00 0.00 76 1010.7